EW0466 Weather Reports


time (UTC)temp
C
wind
direction
speed
KPH
gust
KPH
rain 1hr
cm
rain 24hr
cm
rain mn
cm
humidity
%
barometer
mb
20260507151542 13 0 0.0 3.2 0.00 0.58 0.48 86 1011.6
20260507151025 13 0 0.0 4.8 0.00 0.58 0.48 86 1011.6
20260507150526 13 0 0.0 6.4 0.00 0.58 0.48 86 1011.7
20260507150041 13 0 0.0 6.4 0.00 0.58 0.48 86 1011.7
20260507145525 13 352 1.6 6.4 0.00 0.58 0.48 86 1011.4
20260507145026 13 0 1.6 9.7 0.00 0.58 0.48 86 1011.3
20260507144541 13 352 0.0 9.7 0.00 0.58 0.48 86 1011.2
20260507144026 13 51 0.0 6.4 0.00 0.58 0.48 86 1011.5
20260507143525 12 0 0.0 6.4 0.00 0.58 0.48 86 1011.6
20260507143040 12 38 0.0 8.0 0.00 0.58 0.48 86 1011.6
20260507142526 12 344 1.6 8.0 0.00 0.58 0.48 86 1011.7
20260507142026 12 53 0.0 12.9 0.00 0.58 0.48 86 1011.6
20260507141537 12 0 0.0 12.9 0.00 0.58 0.48 87 1011.6
20260507141026 12 29 1.6 8.0 0.00 0.58 0.48 87 1011.6
20260507140525 12 92 1.6 8.0 0.00 0.58 0.48 87 1011.7
20260507140044 12 0 1.6 9.7 0.00 0.58 0.48 87 1011.6
20260507135527 13 360 3.2 12.9 0.00 0.58 0.48 87 1011.7
20260507135026 13 67 1.6 12.9 0.00 0.58 0.48 87 1011.6
20260507134552 13 14 3.2 14.5 0.00 0.58 0.48 88 1011.7
20260507134026 13 0 0.0 14.5 0.00 0.58 0.48 88 1011.7
20260507133526 13 0 1.6 8.0 0.00 0.58 0.48 88 1011.6
20260507133042 13 0 0.0 8.0 0.00 0.58 0.48 88 1011.4
20260507132526 13 0 1.6 9.7 0.00 0.58 0.48 88 1011.2
20260507132025 13 0 3.2 9.7 0.00 0.58 0.48 88 1011.1
20260507131540 13 0 0.0 4.8 0.00 0.58 0.48 88 1010.9
20260507131026 13 304 0.0 4.8 0.00 0.58 0.48 88 1011.2
20260507130525 13 0 0.0 0.0 0.00 0.58 0.48 88 1011.4
20260507130039 13 0 0.0 4.8 0.00 0.58 0.48 88 1011.7
20260507125525 13 0 0.0 4.8 0.00 0.58 0.48 88 1011.6
20260507125025 13 352 1.6 4.8 0.00 0.58 0.48 88 1011.4
20260507124537 13 0 0.0 3.2 0.00 0.58 0.48 88 1011.4
20260507124025 13 0 0.0 4.8 0.00 0.58 0.48 88 1011.3
20260507123525 13 0 0.0 6.4 0.00 0.58 0.48 88 1011.3
20260507123037 13 0 1.6 6.4 0.03 0.58 0.48 88 1011.2
20260507122524 13 0 1.6 6.4 0.03 0.58 0.48 88 1011.2
20260507122025 13 0 0.0 4.8 0.03 0.58 0.48 88 1010.9
20260507121543 13 0 0.0 9.7 0.03 0.58 0.48 88 1011.1
20260507121024 13 0 0.0 9.7 0.05 0.58 0.48 88 1011.0
20260507120524 13 29 0.0 8.0 0.05 0.58 0.48 88 1011.2
20260507120042 13 360 0.0 6.4 0.08 0.58 0.48 88 1011.5
20260507115525 13 61 0.0 4.8 0.10 0.58 0.48 88 1011.4
20260507115025 13 70 0.0 12.9 0.15 0.58 0.48 88 1011.3
20260507114538 13 0 0.0 12.9 0.18 0.58 0.48 87 1011.4
20260507114025 13 344 1.6 9.7 0.20 0.58 0.48 87 1011.2
20260507113526 13 0 0.0 6.4 0.23 0.58 0.48 87 1010.8
20260507113040 13 343 0.0 8.0 0.25 0.56 0.46 87 1010.9
20260507112525 13 98 1.6 8.0 0.28 0.56 0.46 87 1010.7
20260507112024 13 0 0.0 6.4 0.30 0.56 0.46 87 1011.1
20260507111541 13 144 1.6 6.4 0.30 0.56 0.46 87 1011.2
20260507111025 13 0 1.6 6.4 0.30 0.53 0.43 87 1011.0
20260507110525 13 0 1.6 6.4 0.28 0.51 0.41 87 1010.9
20260507110047 13 0 0.0 6.4 0.30 0.51 0.41 87 1010.9
20260507105524 13 90 1.6 6.4 0.25 0.46 0.36 87 1010.8
20260507105028 13 0 1.6 8.0 0.25 0.43 0.33 86 1011.0
20260507104542 13 341 1.6 16.1 0.23 0.41 0.30 86 1010.6
20260507104025 13 35 3.2 16.1 0.20 0.38 0.28 86 1010.4
20260507103528 13 0 1.6 19.3 0.18 0.36 0.25 86 1010.2
20260507103041 13 22 4.8 19.3 0.13 0.30 0.20 86 1010.2
20260507102525 14 62 3.2 19.3 0.10 0.28 0.18 86 1010.0
20260507102026 14 0 0.0 9.7 0.08 0.25 0.15 86 1009.9
20260507101543 14 352 3.2 11.3 0.08 0.25 0.15 86 1010.2
20260507101028 14 284 3.2 16.1 0.05 0.23 0.13 85 1010.2
20260507100526 14 5 4.8 17.7 0.05 0.23 0.13 85 1010.3
20260507100042 15 255 4.8 17.7 0.03 0.20 0.10 85 1010.1
20260507095526 15 332 3.2 17.7 0.03 0.20 0.10 85 1009.9
20260507095025 15 317 8.0 17.7 0.03 0.18 0.08 84 1009.7
20260507094538 15 18 3.2 16.1 0.03 0.18 0.08 84 1010.0
20260507094025 15 22 4.8 16.1 0.03 0.18 0.08 84 1010.0
20260507093525 15 61 6.4 16.1 0.03 0.18 0.08 84 1009.9
20260507093042 16 26 3.2 17.7 0.03 0.18 0.08 84 1010.1
20260507092526 16 34 4.8 17.7 0.03 0.18 0.08 84 1010.0
20260507092027 16 351 3.2 17.7 0.03 0.18 0.08 84 1010.0
20260507091559 16 253 1.6 24.1 0.05 0.18 0.08 84 1009.9
20260507091030 17 125 8.0 24.1 0.05 0.18 0.08 84 1010.0
20260507090527 17 350 3.2 12.9 0.05 0.18 0.08 84 1010.0
20260507090043 18 92 3.2 17.7 0.05 0.18 0.08 85 1009.9
20260507085527 18 344 4.8 17.7 0.05 0.18 0.08 85 1009.8
20260507085028 19 352 3.2 14.5 0.03 0.15 0.05 86 1009.5
20260507084542 19 352 3.2 9.7 0.03 0.15 0.05 86 1009.4
20260507084025 19 0 0.0 3.2 0.03 0.15 0.05 86 1009.3
20260507083525 19 0 0.0 6.4 0.03 0.15 0.05 86 1008.8
20260507083040 19 0 0.0 6.4 0.05 0.15 0.05 85 1008.9
20260507082525 19 0 1.6 4.8 0.05 0.15 0.05 85 1009.2
20260507082027 19 0 1.6 8.0 0.05 0.15 0.05 85 1009.3
20260507081546 19 290 0.0 8.0 0.03 0.13 0.03 85 1009.0
20260507081025 19 345 1.6 6.4 0.03 0.13 0.03 85 1008.9
20260507080527 19 0 0.0 0.0 0.03 0.13 0.03 84 1008.5
20260507080045 19 0 0.0 0.0 0.03 0.13 0.03 84 1008.6
20260507075525 19 0 0.0 3.2 0.03 0.13 0.03 84 1008.6
20260507075027 20 0 0.0 3.2 0.03 0.13 0.03 84 1008.6
20260507074545 20 0 0.0 6.4 0.03 0.13 0.03 84 1008.5
20260507074024 20 0 1.6 6.4 0.03 0.13 0.03 84 1008.9
20260507073528 20 0 0.0 9.7 0.03 0.13 0.03 83 1008.9
20260507073042 20 246 1.6 9.7 0.00 0.10 0.00 83 1008.9
20260507072529 20 314 0.0 9.7 0.00 0.10 0.00 83 1009.3
20260507072025 20 208 1.6 11.3 0.00 0.10 0.00 83 1009.3
20260507071538 20 304 3.2 17.7 0.00 0.10 0.00 83 1009.2
20260507071027 20 281 4.8 17.7 0.00 0.10 0.00 82 1009.1
20260507070525 20 200 1.6 11.3 0.00 0.10 0.00 82 1009.0
20260507070056 20 261 3.2 17.7 0.00 0.10 0.00 82 1008.8
20260507065525 20 263 4.8 17.7 0.00 0.10 0.00 82 1008.9
20260507065025 20 231 4.8 16.1 0.00 0.10 0.00 82 1008.7
20260507064544 20 72 3.2 12.9 0.00 0.10 0.00 82 1008.6
20260507064027 20 0 3.2 14.5 0.00 0.10 0.00 82 1008.6
20260507063524 20 0 4.8 14.5 0.00 0.10 0.00 81 1008.6
20260507063037 20 193 4.8 14.5 0.00 0.10 0.00 81 1008.5
20260507062525 20 229 1.6 9.7 0.00 0.10 0.00 81 1008.5
20260507062027 20 239 3.2 9.7 0.00 0.10 0.00 81 1008.3
20260507061541 20 269 1.6 9.7 0.00 0.10 0.00 81 1008.5
20260507061025 20 217 1.6 9.7 0.00 0.10 0.00 81 1008.5
20260507060524 20 0 1.6 6.4 0.00 0.10 0.00 81 1008.5
20260507060056 20 227 1.6 6.4 0.00 0.10 0.00 81 1008.8
20260507055525 20 0 0.0 11.3 0.00 0.10 0.00 81 1008.9
20260507055025 20 238 0.0 11.3 0.00 0.10 0.00 80 1008.9
20260507054538 20 223 1.6 11.3 0.00 0.10 0.00 80 1008.9
20260507054025 21 0 3.2 11.3 0.00 0.10 0.00 80 1009.1
20260507053525 21 317 1.6 14.5 0.00 0.10 0.00 80 1009.2
20260507053048 21 259 1.6 16.1 0.00 0.10 0.00 79 1009.2
20260507052525 21 258 6.4 16.1 0.00 0.10 0.00 79 1009.3
20260507052025 21 203 3.2 16.1 0.00 0.10 0.00 79 1009.4
20260507051541 21 306 3.2 14.5 0.00 0.10 0.00 79 1009.5
20260507051025 21 240 1.6 14.5 0.00 0.10 0.00 79 1009.6
20260507050526 21 139 4.8 14.5 0.00 0.10 0.00 79 1009.7
20260507050044 21 21 3.2 14.5 0.00 0.10 0.00 78 1009.9
20260507045525 21 250 4.8 14.5 0.00 0.10 0.00 78 1009.8
20260507045025 20 143 3.2 12.9 0.00 0.10 0.00 78 1010.1
20260507044539 20 235 4.8 12.9 0.00 0.10 0.00 79 1010.0
20260507044024 20 279 3.2 12.9 0.00 0.10 0.00 79 1010.0
20260507043525 20 254 1.6 11.3 0.00 0.10 0.00 79 1009.9
20260507043040 20 275 3.2 11.3 0.00 0.10 0.00 79 1010.0
20260507042525 20 232 3.2 11.3 0.00 0.10 0.00 79 1010.0
20260507042025 20 279 3.2 9.7 0.00 0.10 0.00 79 1010.0
20260507041541 20 0 0.0 8.0 0.00 0.10 0.00 79 1010.0
20260507041025 20 226 1.6 8.0 0.00 0.10 0.00 79 1009.7
20260507040525 20 316 1.6 11.3 0.00 0.10 0.00 80 1009.7
20260507040042 20 259 1.6 11.3 0.00 0.10 0.00 80 1009.8
20260507035525 20 0 3.2 9.7 0.00 0.10 0.10 80 1009.9
20260507035025 20 229 1.6 8.0 0.00 0.10 0.10 80 1009.8
20260507034554 20 284 0.0 11.3 0.00 0.10 0.10 80 1009.6
20260507034027 20 0 0.0 11.3 0.00 0.10 0.10 80 1009.8
20260507033525 20 247 1.6 12.9 0.00 0.10 0.10 80 1009.7
20260507033044 20 238 3.2 12.9 0.00 0.10 0.10 80 1009.7
20260507032524 20 206 1.6 11.3 0.00 0.10 0.10 80 1009.6
20260507032024 20 0 1.6 11.3 0.00 0.10 0.10 80 1009.6
20260507031542 20 0 0.0 4.8 0.00 0.10 0.10 80 1009.7
20260507031026 20 286 0.0 8.0 0.00 0.10 0.10 80 1009.4
20260507030526 20 229 1.6 8.0 0.00 0.10 0.10 80 1009.5
20260507030041 20 0 1.6 8.0 0.00 0.10 0.10 81 1009.5
20260507025524 20 190 0.0 8.0 0.00 0.10 0.10 81 1009.6
20260507025025 20 266 0.0 8.0 0.00 0.10 0.10 81 1009.7
20260507024551 20 0 0.0 9.7 0.00 0.10 0.10 81 1009.6
20260507024025 20 0 1.6 9.7 0.00 0.10 0.10 81 1009.8
20260507023525 20 288 0.0 6.4 0.00 0.10 0.10 81 1009.7
20260507023037 20 240 0.0 8.0 0.00 0.10 0.10 81 1009.7
20260507022525 20 264 0.0 8.0 0.00 0.10 0.10 81 1009.8
20260507022027 19 0 0.0 11.3 0.00 0.10 0.10 81 1009.9
20260507021549 19 312 1.6 11.3 0.00 0.10 0.10 82 1010.2
20260507021026 19 300 0.0 6.4 0.00 0.10 0.10 82 1010.2
20260507020525 19 0 0.0 4.8 0.00 0.10 0.10 82 1010.0
20260507020041 19 0 1.6 4.8 0.00 0.10 0.10 81 1009.8
20260507015524 19 0 0.0 0.0 0.00 0.10 0.10 81 1010.0
20260507015025 19 0 0.0 0.0 0.00 0.10 0.10 80 1010.0
20260507014543 19 0 0.0 0.0 0.00 0.10 0.10 80 1010.0
20260507014027 19 0 0.0 0.0 0.00 0.10 0.10 80 1009.9
20260507013524 19 0 0.0 0.0 0.00 0.10 0.10 80 1009.7
20260507013038 20 0 0.0 0.0 0.00 0.10 0.10 80 1009.8
20260507012525 20 0 0.0 0.0 0.00 0.10 0.10 80 1009.8
20260507012025 20 0 0.0 3.2 0.00 0.10 0.10 80 1010.0
20260507011548 20 0 0.0 4.8 0.00 0.10 0.10 79 1009.9
20260507011025 20 141 0.0 4.8 0.00 0.10 0.10 79 1009.8
20260507010525 20 0 0.0 1.6 0.00 0.10 0.10 78 1009.8
20260507010049 20 0 0.0 0.0 0.00 0.10 0.10 78 1009.8
20260507005525 20 0 0.0 0.0 0.00 0.10 0.10 78 1009.9
20260507005024 20 0 0.0 1.6 0.00 0.10 0.10 78 1009.9
20260507004543 20 0 0.0 4.8 0.00 0.10 0.10 78 1009.9
20260507004025 20 0 0.0 4.8 0.00 0.10 0.10 77 1010.0
20260507003525 21 0 0.0 3.2 0.00 0.10 0.10 77 1010.0
20260507003041 21 298 0.0 3.2 0.00 0.10 0.10 77 1009.9
20260507002527 21 0 0.0 3.2 0.00 0.10 0.10 77 1010.0
20260507002025 21 0 0.0 4.8 0.00 0.10 0.10 77 1009.9
20260507001549 21 0 0.0 4.8 0.00 0.10 0.10 77 1010.0
20260507001024 21 0 0.0 4.8 0.00 0.10 0.10 77 1010.0
20260507000525 21 275 0.0 4.8 0.00 0.10 0.10 76 1009.9
20260507000042 21 0 0.0 4.8 0.00 0.10 0.10 76 1009.7
20260506235526 21 0 0.0 4.8 0.00 0.10 0.10 75 1009.6
20260506235025 21 0 0.0 4.8 0.00 0.10 0.10 75 1009.5
20260506234538 21 258 0.0 4.8 0.00 0.10 0.10 75 1009.4
20260506234025 22 0 0.0 8.0 0.00 0.10 0.10 75 1009.6
20260506233526 22 231 3.2 8.0 0.00 0.10 0.10 74 1009.5
20260506233038 22 0 0.0 6.4 0.00 0.10 0.10 74 1009.6
20260506232525 22 0 0.0 6.4 0.00 0.10 0.10 74 1009.7
20260506232025 22 294 0.0 6.4 0.00 0.10 0.10 74 1009.5
20260506231538 22 255 0.0 6.4 0.00 0.10 0.10 74 1009.5
20260506231025 22 195 1.6 6.4 0.00 0.10 0.10 74 1009.7
20260506230525 22 0 0.0 6.4 0.00 0.10 0.10 74 1009.7
20260506230046 22 0 1.6 6.4 0.00 0.10 0.10 74 1009.6
20260506225526 22 250 0.0 9.7 0.00 0.10 0.10 73 1009.4
20260506225026 22 259 1.6 9.7 0.00 0.10 0.10 73 1009.6
20260506224544 22 257 1.6 9.7 0.00 0.10 0.10 73 1009.4
20260506224025 22 163 3.2 9.7 0.00 0.10 0.10 73 1009.5
20260506223525 22 270 3.2 9.7 0.00 0.10 0.10 73 1009.4
20260506223043 22 275 1.6 9.7 0.00 0.10 0.10 72 1009.6
20260506222527 22 198 1.6 9.7 0.00 0.10 0.10 72 1009.4
20260506222026 22 166 3.2 8.0 0.00 0.10 0.10 72 1009.4
20260506221546 22 243 0.0 9.7 0.00 0.10 0.10 71 1009.5
20260506221024 22 0 1.6 11.3 0.00 0.10 0.10 71 1009.5
20260506220526 22 250 4.8 12.9 0.00 0.10 0.10 70 1009.5
20260506220048 22 262 4.8 12.9 0.00 0.10 0.10 70 1009.5
20260506215525 22 265 4.8 12.9 0.00 0.10 0.10 70 1009.5
20260506215025 22 270 4.8 16.1 0.00 0.10 0.10 70 1009.7
20260506214537 22 248 4.8 16.1 0.00 0.10 0.10 70 1009.8
20260506214028 22 279 6.4 20.9 0.00 0.10 0.10 70 1009.8
20260506213524 22 217 4.8 20.9 0.00 0.10 0.10 70 1009.7
20260506213041 22 285 6.4 17.7 0.00 0.10 0.10 70 1009.7
20260506212526 22 195 6.4 17.7 0.00 0.10 0.10 70 1009.8
20260506212026 22 277 9.7 19.3 0.00 0.10 0.10 70 1009.6
20260506211550 22 269 4.8 19.3 0.00 0.10 0.10 71 1009.5
20260506211026 22 248 9.7 25.7 0.00 0.10 0.10 71 1009.5
20260506210526 22 184 6.4 25.7 0.00 0.10 0.10 72 1009.7
20260506210038 22 192 6.4 20.9 0.00 0.10 0.10 71 1009.6
20260506205525 22 225 6.4 19.3 0.00 0.10 0.10 71 1009.7
20260506205025 22 265 4.8 19.3 0.00 0.10 0.10 72 1009.6
20260506204538 22 254 6.4 19.3 0.00 0.10 0.10 72 1009.8
20260506204025 22 25 8.0 19.3 0.00 0.10 0.10 73 1009.6
20260506203525 22 242 4.8 14.5 0.00 0.10 0.10 73 1009.5
20260506203038 22 231 4.8 14.5 0.00 0.10 0.10 73 1009.6
20260506202525 21 248 1.6 16.1 0.00 0.10 0.10 73 1009.4
20260506202025 21 0 6.4 17.7 0.00 0.10 0.10 73 1009.4
20260506201539 21 208 3.2 17.7 0.00 0.10 0.10 73 1009.3
20260506201027 21 252 4.8 14.5 0.00 0.10 0.10 74 1009.4
20260506200525 21 296 3.2 14.5 0.00 0.10 0.10 73 1009.0
20260506200044 21 153 4.8 14.5 0.00 0.10 0.10 73 1008.7
20260506195525 21 267 3.2 14.5 0.00 0.10 0.10 74 1008.9
20260506195025 21 130 1.6 12.9 0.00 0.10 0.10 74 1009.0
20260506194541 21 158 3.2 14.5 0.00 0.10 0.10 74 1009.3
20260506194025 21 282 3.2 14.5 0.00 0.10 0.10 75 1009.3
20260506193525 21 210 1.6 16.1 0.00 0.10 0.10 75 1009.3
20260506193039 21 265 4.8 16.1 0.00 0.10 0.10 76 1009.6
20260506192526 20 265 4.8 16.1 0.00 0.10 0.10 76 1009.7
20260506192025 20 171 6.4 19.3 0.00 0.10 0.10 77 1009.4
20260506191542 20 138 4.8 19.3 0.00 0.10 0.10 78 1009.3
20260506191026 20 141 4.8 19.3 0.00 0.10 0.10 79 1009.8
20260506190525 20 0 0.0 14.5 0.00 0.10 0.10 79 1009.9
20260506190038 20 202 4.8 14.5 0.00 0.10 0.10 80 1010.1
20260506185525 19 109 1.6 11.3 0.00 0.10 0.10 80 1010.2
20260506185025 19 0 4.8 12.9 0.00 0.10 0.10 80 1010.5
20260506184547 19 142 3.2 12.9 0.00 0.10 0.10 80 1010.6
20260506184029 19 274 3.2 12.9 0.00 0.10 0.10 80 1010.7
20260506183525 19 26 3.2 12.9 0.00 0.10 0.10 80 1010.8
20260506183039 19 175 3.2 12.9 0.00 0.10 0.10 80 1011.0
20260506182524 19 198 3.2 11.3 0.00 0.10 0.10 80 1011.1
20260506182027 19 207 1.6 9.7 0.00 0.10 0.10 80 1011.2
20260506181543 19 195 3.2 11.3 0.00 0.10 0.10 79 1011.2
20260506181027 19 138 1.6 14.5 0.00 0.10 0.10 79 1011.3
20260506180526 19 0 1.6 14.5 0.00 0.10 0.10 79 1011.5
20260506180041 19 229 3.2 16.1 0.00 0.10 0.10 78 1011.6
20260506175525 19 228 4.8 17.7 0.00 0.10 0.10 77 1011.5
20260506175026 19 124 6.4 17.7 0.00 0.10 0.10 77 1011.4
20260506174538 19 0 3.2 14.5 0.00 0.10 0.10 77 1011.4
20260506174026 19 233 4.8 19.3 0.00 0.10 0.10 78 1011.4
20260506173526 19 235 6.4 19.3 0.00 0.10 0.10 77 1011.3
20260506173038 19 202 6.4 16.1 0.00 0.10 0.10 78 1011.1
20260506172526 19 237 4.8 12.9 0.00 0.10 0.10 79 1011.3
20260506172026 19 154 3.2 14.5 0.00 0.10 0.10 80 1011.2
20260506171544 18 103 4.8 14.5 0.00 0.10 0.10 80 1011.3
20260506171026 18 200 4.8 14.5 0.00 0.10 0.10 81 1011.5
20260506170525 18 191 3.2 14.5 0.00 0.10 0.10 81 1011.5
20260506170047 18 169 4.8 14.5 0.00 0.10 0.10 81 1011.3
20260506165526 18 146 3.2 14.5 0.00 0.10 0.10 81 1011.4
20260506165026 18 48 3.2 14.5 0.00 0.10 0.10 82 1011.4
20260506164541 18 191 4.8 12.9 0.00 0.10 0.10 82 1011.3
20260506164025 18 187 1.6 11.3 0.00 0.10 0.10 83 1011.6
20260506163526 18 211 3.2 11.3 0.00 0.10 0.10 83 1011.7
20260506163048 18 182 4.8 12.9 0.00 0.10 0.10 83 1011.6
20260506162526 18 113 3.2 12.9 0.00 0.10 0.10 83 1011.9
20260506162026 18 105 3.2 9.7 0.00 0.10 0.10 83 1011.7
20260506161539 18 81 1.6 9.7 0.05 0.10 0.10 83 1012.0
20260506161026 18 154 1.6 11.3 0.08 0.10 0.10 84 1012.0
20260506160525 18 0 1.6 11.3 0.10 0.10 0.10 84 1011.9
20260506160042 18 78 4.8 11.3 0.10 0.10 0.10 83 1012.0
20260506155526 18 176 1.6 9.7 0.10 0.10 0.10 84 1012.2
20260506155026 18 133 3.2 9.7 0.10 0.10 0.10 84 1012.3
20260506154547 18 139 0.0 12.9 0.10 0.10 0.10 84 1012.4
20260506154026 18 0 3.2 12.9 0.10 0.10 0.10 84 1012.4
20260506153526 18 169 1.6 9.7 0.10 0.10 0.10 85 1012.5
20260506153044 17 59 1.6 6.4 0.10 0.10 0.10 84 1012.6
20260506152526 17 0 0.0 0.0 0.10 0.10 0.10 84 1012.5
20260506152026 18 0 0.0 9.7 0.08 0.08 0.08 82 1012.6